Flag for U.S.A. Weather past 2 weeks in Scranton, Pennsylvania, U.S.A.

Now
83 °F

Sunny.


Feels Like: 82 °F
Forecast: 59 / 84 °F
Wind: 15 mph from West

Location: Barre - Scranton - Wilkes-Barre / Scranton International Airport

Current Time: Aug 2, 2015 at 1:32:31 PM

Latest Report: Aug 2, 2015 at 12:54 PM


Visibility: 10 mi

Pressure: 29.91 "Hg

Humidity: 36%

Dew point: 53 °F

Location of ScrantonLocation

Historic Weather in Scranton — Graph

°F

Scranton temperature yesterday

Maximum temperature yesterday: 81 °F (at 1:54 PM)
Minimum temperature yesterday: 62 °F (at 11:54 PM)
Average temperature yesterday: 73 °F

Past Weeks' High & Low Weather Summary

 TemperatureHumidityPressure
High93 °F (Jul 19, 2:54 PM)96% (Jul 27, 12:54 AM)30.05 "Hg (Jul 27, 12:54 AM)
Low55 °F (Jul 23, 5:54 AM)29% (Jul 25, 1:54 PM)29.59 "Hg (Jul 21, 3:54 PM)
Average75 °F66%29.88 "Hg
* Reported Jul 18 11:54 AM — Aug 2 11:54 AM, Scranton, Weather by CustomWeather, © 2015

Note: Actual official high and low records may vary slightly from our data, if they occured in-between our weather recording intervals... More about our weather records

Advertising

Scranton weather history for previous 24 hours

 ConditionsComfort  
Time TempWeatherWind HumidityBarometerVisibility
11:54 AM
Sun, Aug 2
79 °FSunny.12 mph48%29.93 "Hg10 mi
10:54 AM76 °FSunny.8 mph54%29.93 "Hg10 mi
9:54 AM72 °FSunny.6 mph68%29.93 "Hg10 mi
8:54 AM68 °FSunny.No wind73%29.93 "Hg10 mi
7:54 AM64 °FSunny.No wind78%29.92 "Hg10 mi
6:54 AM59 °FClear.7 mph87%29.91 "Hg10 mi
5:54 AM59 °FClear.6 mph87%29.90 "Hg10 mi
4:54 AM58 °FClear.3 mph90%29.90 "Hg10 mi
3:54 AM59 °FClear.3 mph87%29.90 "Hg10 mi
2:54 AM60 °FClear.No wind86%29.90 "Hg10 mi
1:54 AM61 °FClear.5 mph83%29.88 "Hg10 mi
12:54 AM62 °FClear.5 mph83%29.88 "Hg10 mi
11:54 PM
Sat, Aug 1
62 °FClear.5 mph83%29.88 "Hg10 mi
10:54 PM63 °FClear.5 mph84%29.87 "Hg10 mi
9:54 PM63 °FClear.5 mph87%29.88 "Hg10 mi
8:54 PM65 °FSunny.3 mph87%29.86 "Hg10 mi
7:54 PM68 °FPartly sunny.5 mph82%29.84 "Hg10 mi
6:54 PM74 °FLight rain. Overcast.3 mph64%29.82 "Hg6 mi
5:54 PM80 °FBroken clouds.7 mph42%29.81 "Hg10 mi
4:54 PM79 °FMostly cloudy.6 mph44%29.81 "Hg10 mi
3:54 PM80 °FOvercast.6 mph45%29.82 "Hg10 mi
2:54 PM81 °FPartly sunny.10 mph42%29.82 "Hg10 mi
1:54 PM81 °FBroken clouds.5 mph44%29.82 "Hg10 mi
Weather by CustomWeather, © 2015

See weather overviewHow to use our weather pages